Location: *
(49.0044°N, 9.5056°E)
Time: 02:29:58
(UTC+00:00)

MetOp-A - Pass Details

Date: 22 September 2019
Orbit: 820 x 821 km, 98.6° (Epoch: 15 October)

Event Time Altitude Azimuth Distance (km) Brightness Sun altitude
Exits shadow 19:55:15 43° 188° (S) 1,149 4.7 -24.9°
Maximum altitude 19:57:00 69° 257° (WSW) 878 4.3 -25.1°
Drops below altitude 10° 20:02:23 10° 341° (NNW) 2,429 7.2 -25.8°
Sets 20:04:45 0° 344° (NNW) 3,366 8.1 -26.2°
